Location: Roland
(31.1349°N, 85.4372°W)
Time: 21:30:47
(UTC+00:00)

Tiros 1 - Pass Details

Date: 22 April 2021
Orbit: 630 x 664 km, 48.4° (Epoch: 05 May)

Event Time Altitude Azimuth Distance (km) Brightness Sun altitude
Rises 12:00:33 0° 201° (SSW) 2,949 10.3 10.6°
Reaches altitude 10° 12:03:10 10° 189° (S) 2,035 9.6 11.2°
Maximum altitude 12:07:08 27° 131° (SE) 1,219 9.3 12.0°
Drops below altitude 10° 12:11:04 10° 73° (ENE) 2,025 12.1 12.9°
Sets 12:13:39 0° 62° (ENE) 2,931 11.9 13.4°
